TimeCST,TemperatureF,Dew PointF,Humidity,Sea Level PressureIn,VisibilityMPH,Wind Direction,Wind SpeedMPH,Gust SpeedMPH,PrecipitationIn,Events,Conditions,WindDirDegrees,DateUTC
12:10 AM,-0.4,-7.6,72,30.33,10.0,NNW,8.1,-,N/A,,Clear,340,2013-02-20 06:10:00
12:32 AM,-0.4,-5.8,78,30.34,10.0,North,9.2,-,N/A,,Clear,350,2013-02-20 06:32:00
12:52 AM,-2.2,-7.6,78,30.35,10.0,North,9.2,-,N/A,,Clear,350,2013-02-20 06:52:00
1:12 AM,-0.4,-7.6,72,30.35,10.0,NNW,9.2,-,N/A,,Clear,340,2013-02-20 07:12:00
1:33 AM,-2.2,-7.6,78,30.36,10.0,NW,5.8,-,N/A,,Clear,320,2013-02-20 07:33:00
1:52 AM,-2.2,-7.6,78,30.37,10.0,NW,5.8,-,N/A,,Clear,310,2013-02-20 07:52:00
2:13 AM,-4.0,-7.6,85,30.36,10.0,North,5.8,-,N/A,,Clear,350,2013-02-20 08:13:00
2:33 AM,-5.8,-9.4,84,30.37,10.0,NNW,4.6,-,N/A,,Clear,330,2013-02-20 08:33:00
2:52 AM,-4.0,-7.6,85,30.38,10.0,NW,3.5,-,N/A,,Clear,320,2013-02-20 08:52:00
3:11 AM,-5.8,-9.4,84,30.38,10.0,North,4.6,-,N/A,,Clear,350,2013-02-20 09:11:00
3:33 AM,-5.8,-9.4,84,30.38,10.0,Calm,Calm,-,N/A,,Clear,0,2013-02-20 09:33:00
3:53 AM,-5.8,-9.4,84,30.40,10.0,WNW,3.5,-,N/A,,Clear,290,2013-02-20 09:53:00
4:11 AM,-5.8,-9.4,84,30.40,10.0,NW,4.6,-,N/A,,Clear,310,2013-02-20 10:11:00
4:33 AM,-5.8,-9.4,84,30.41,10.0,NW,4.6,-,N/A,,Clear,320,2013-02-20 10:33:00
4:52 AM,-7.6,-11.2,84,30.41,10.0,NNW,4.6,-,N/A,,Clear,330,2013-02-20 10:52:00
5:11 AM,-5.8,-9.4,84,30.41,10.0,NW,5.8,-,N/A,,Clear,310,2013-02-20 11:11:00
5:32 AM,-7.6,-13.0,77,30.41,10.0,NNW,5.8,-,N/A,,Clear,330,2013-02-20 11:32:00
5:52 AM,-7.6,-13.0,77,30.41,10.0,North,3.5,-,N/A,,Clear,350,2013-02-20 11:52:00
6:12 AM,-7.6,-13.0,77,30.41,10.0,North,4.6,-,N/A,,Clear,350,2013-02-20 12:12:00
6:33 AM,-9.4,-14.8,77,30.41,10.0,NNW,4.6,-,N/A,,Clear,340,2013-02-20 12:33:00
6:53 AM,-9.4,-13.0,84,30.42,10.0,North,4.6,-,N/A,,Clear,350,2013-02-20 12:53:00
7:12 AM,-11.2,-16.6,77,30.41,10.0,NNW,10.4,-,N/A,,Clear,340,2013-02-20 13:12:00
7:29 AM,-9.4,-14.8,77,30.42,10.0,NNW,6.9,-,N/A,,Clear,340,2013-02-20 13:29:00
7:49 AM,-7.6,-13.0,77,30.43,10.0,Calm,Calm,-,N/A,,Clear,0,2013-02-20 13:49:00
8:13 AM,-5.8,-11.2,77,30.43,10.0,North,4.6,-,N/A,,Clear,10,2013-02-20 14:13:00
8:29 AM,-4.0,-9.4,78,30.43,10.0,North,6.9,-,N/A,,Clear,10,2013-02-20 14:29:00
8:52 AM,-4.0,-9.4,78,30.43,10.0,NNE,5.8,-,N/A,,Clear,20,2013-02-20 14:52:00
9:13 AM,-0.4,-9.4,66,30.43,10.0,NE,4.6,-,N/A,,Clear,40,2013-02-20 15:13:00
9:33 AM,-0.4,-7.6,72,30.43,10.0,NE,6.9,-,N/A,,Clear,40,2013-02-20 15:33:00
9:52 AM,1.4,-7.6,66,30.43,10.0,NE,5.8,-,N/A,,Clear,50,2013-02-20 15:52:00
10:13 AM,3.2,-7.6,61,30.43,10.0,ENE,4.6,-,N/A,,Clear,70,2013-02-20 16:13:00
10:33 AM,5.0,-5.8,61,30.42,10.0,ENE,4.6,-,N/A,,Clear,60,2013-02-20 16:33:00
10:52 AM,6.8,-5.8,56,30.41,10.0,North,4.6,-,N/A,,Clear,360,2013-02-20 16:52:00
11:10 AM,8.6,-5.8,52,30.42,10.0,NNE,3.5,-,N/A,,Clear,20,2013-02-20 17:10:00
11:32 AM,10.4,-4.0,52,30.42,10.0,NNE,4.6,-,N/A,,Clear,30,2013-02-20 17:32:00
11:51 AM,12.2,-4.0,48,30.41,10.0,North,3.5,-,N/A,,Clear,350,2013-02-20 17:51:00
12:11 PM,14.0,-4.0,45,30.41,10.0,Calm,Calm,-,N/A,,Clear,0,2013-02-20 18:11:00
12:33 PM,14.0,-4.0,45,30.41,10.0,Calm,Calm,-,N/A,,Clear,0,2013-02-20 18:33:00
12:52 PM,15.8,-4.0,41,30.41,10.0,East,5.8,-,N/A,,Clear,90,2013-02-20 18:52:00
1:13 PM,17.6,-4.0,38,30.40,10.0,East,5.8,-,N/A,,Clear,80,2013-02-20 19:13:00
1:33 PM,17.6,-4.0,38,30.40,10.0,East,3.5,-,N/A,,Clear,90,2013-02-20 19:33:00
1:53 PM,17.6,-4.0,38,30.40,10.0,Calm,Calm,-,N/A,,Clear,0,2013-02-20 19:53:00
2:13 PM,19.4,-2.2,39,30.41,10.0,Calm,Calm,-,N/A,,Clear,0,2013-02-20 20:13:00
2:32 PM,19.4,-4.0,36,30.41,10.0,Calm,Calm,-,N/A,,Clear,0,2013-02-20 20:32:00
3:12 PM,19.4,-2.2,39,30.42,10.0,Calm,Calm,-,N/A,,Clear,0,2013-02-20 21:12:00
3:31 PM,19.4,-0.4,42,30.42,10.0,Calm,Calm,-,N/A,,Clear,0,2013-02-20 21:31:00
4:13 PM,19.4,-2.2,39,30.41,10.0,Calm,Calm,-,N/A,,Clear,0,2013-02-20 22:13:00
4:31 PM,19.4,-2.2,39,30.42,10.0,Calm,Calm,-,N/A,,Clear,0,2013-02-20 22:31:00
4:52 PM,19.4,-4.0,36,30.42,10.0,Calm,Calm,-,N/A,,Clear,0,2013-02-20 22:52:00
5:13 PM,17.6,-4.0,38,30.41,10.0,NE,3.5,-,N/A,,Clear,40,2013-02-20 23:13:00
5:31 PM,17.6,-4.0,38,30.41,10.0,NE,4.6,-,N/A,,Clear,50,2013-02-20 23:31:00
5:53 PM,15.8,-4.0,41,30.41,10.0,NE,4.6,-,N/A,,Clear,40,2013-02-20 23:53:00
6:13 PM,15.8,-4.0,41,30.40,10.0,NE,3.5,-,N/A,,Clear,40,2013-02-21 00:13:00
6:33 PM,14.0,-4.0,45,30.40,10.0,NE,4.6,-,N/A,,Clear,40,2013-02-21 00:33:00
6:53 PM,14.0,-4.0,45,30.40,10.0,NE,3.5,-,N/A,,Clear,50,2013-02-21 00:53:00
7:12 PM,12.2,-4.0,48,30.40,10.0,NE,3.5,-,N/A,,Clear,50,2013-02-21 01:12:00
7:31 PM,12.2,-5.8,45,30.40,10.0,Calm,Calm,-,N/A,,Clear,0,2013-02-21 01:31:00
7:52 PM,12.2,-5.8,45,30.39,10.0,ENE,4.6,-,N/A,,Clear,60,2013-02-21 01:52:00
8:13 PM,12.2,-5.8,45,30.38,10.0,NE,4.6,-,N/A,,Clear,50,2013-02-21 02:13:00
8:32 PM,12.2,-7.6,41,30.38,10.0,Calm,Calm,-,N/A,,Clear,0,2013-02-21 02:32:00
8:50 PM,10.4,-7.6,44,30.38,10.0,NE,4.6,-,N/A,,Clear,40,2013-02-21 02:50:00
9:13 PM,10.4,-9.4,41,30.38,10.0,NE,4.6,-,N/A,,Clear,50,2013-02-21 03:13:00
9:33 PM,10.4,-9.4,41,30.38,10.0,NE,3.5,-,N/A,,Clear,50,2013-02-21 03:33:00
9:51 PM,10.4,-9.4,41,30.38,10.0,Calm,Calm,-,N/A,,Clear,0,2013-02-21 03:51:00
10:08 PM,8.6,-9.4,44,30.38,10.0,Calm,Calm,-,N/A,,Clear,0,2013-02-21 04:08:00
10:30 PM,8.6,-9.4,44,30.38,10.0,NE,4.6,-,N/A,,Clear,40,2013-02-21 04:30:00
10:51 PM,8.6,-11.2,40,30.38,10.0,NE,3.5,-,N/A,,Clear,40,2013-02-21 04:51:00
11:12 PM,6.8,-11.2,44,30.39,10.0,Calm,Calm,-,N/A,,Clear,0,2013-02-21 05:12:00
11:32 PM,5.0,-7.6,56,30.40,10.0,Calm,Calm,-,N/A,,Clear,0,2013-02-21 05:32:00
11:53 PM,3.2,-9.4,56,30.40,10.0,Calm,Calm,-,N/A,,Clear,0,2013-02-21 05:53:00